This is the latest recevied weather packets stored in our database for station/object OK1KZE-6. If no packets are shown the sender has not sent any weather packets the latest 10 day(s).
| Time | Temp. | Humidity | Pressure | Rain* | Wind** | Luminosity | Snow |
|---|---|---|---|---|---|---|---|
| 1777535409 | 6.67° C | 42% | 1032.7 hPa | - | - | - | - |
| 1777535108 | 6.67° C | 42% | 1032.8 hPa | - | - | - | - |
| 1777534808 | 6.67° C | 41% | 1032.7 hPa | - | - | - | - |
| 1777534209 | 5.56° C | 45% | 1032.7 hPa | - | - | - | - |
| 1777533908 | 5.56° C | 44% | 1032.7 hPa | - | - | - | - |
| 1777533608 | 5.56° C | 46% | 1032.5 hPa | - | - | - | - |
| 1777533308 | 5.56° C | 47% | 1032.5 hPa | - | - | - | - |
| 1777533008 | 5.56° C | 47% | 1032.9 hPa | - | - | - | - |
| 1777532708 | 5.56° C | 46% | 1032.8 hPa | - | - | - | - |
| 1777532408 | 5.56° C | 48% | 1032.6 hPa | - | - | - | - |
| 1777532107 | 5° C | 48% | 1032.9 hPa | - | - | - | - |
| 1777531808 | 4.44° C | 50% | 1032.6 hPa | - | - | - | - |
| 1777531508 | 4.44° C | 49% | 1032.6 hPa | - | - | - | - |
| 1777531208 | 4.44° C | 50% | 1032.5 hPa | - | - | - | - |
| 1777530908 | 3.89° C | 52% | 1032.4 hPa | - | - | - | - |
| 1777530608 | 3.89° C | 51% | 1032.5 hPa | - | - | - | - |
| 1777530308 | 3.89° C | 52% | 1032.5 hPa | - | - | - | - |
| 1777530008 | 3.89° C | 52% | 1032.7 hPa | - | - | - | - |
| 1777529708 | 3.89° C | 50% | 1032.2 hPa | - | - | - | - |
| 1777529408 | 3.89° C | 52% | 1032.5 hPa | - | - | - | - |
| 1777529107 | 3.89° C | 52% | 1032.6 hPa | - | - | - | - |
| 1777528809 | 3.89° C | 51% | 1032.5 hPa | - | - | - | - |
| 1777528508 | 5° C | 49% | 1032.6 hPa | - | - | - | - |
| 1777528208 | 5° C | 49% | 1032.4 hPa | - | - | - | - |
| 1777527909 | 4.44° C | 50% | 1032.5 hPa | - | - | - | - |
* Rain since midnight (hover to see other rain measurements)
** Current wind speed in m/s (hover to see current wind gust speed)